Phoenix, AZ

9:42 AM MST on July 23, 2016 (GMT -0700)
Phoenix Sky Harbor International

Weather History for KPHX - September, 2013

Change the Weather History Date:

Saturday, September 28, 2013

  Actual Average Record
Temperature  
Mean Temperature 78 °F 84 °F  
Max Temperature 92 °F 96 °F 108 °F (1992)
Min Temperature 63 °F 72 °F 50 °F (1923)
Degree Days  
Heating Degree Days 0 0  
Month to date heating degree days 0 0  
Since 1 July heating degree days 0 0  
Cooling Degree Days 13 19  
Month to date cooling degree days 686 665  
Year to date cooling degree days 4574 4134  
Growing Degree Days 27 (Base 50)    
Moisture  
Dew Point 26 °F    
Average Humidity 20    
Maximum Humidity 31    
Minimum Humidity 8    
Precipitation  
Precipitation 0.00 in 0.02 in 1.31 in (1903)
Month to date precipitation 0.86 0.60  
Year to date precipitation 5.60 5.88  
Snow  
Snow 0.00 in - - ()
Month to date snowfall 0.0  
Year to date snowfall 0.0  
Since 1 July snowfall 0.0  
Snow Depth 0.00 in    
Sea Level Pressure  
Sea Level Pressure 29.94 in    
Wind  
Wind Speed 3 mph (WSW)    
Max Wind Speed 15 mph    
Max Gust Speed 24 mph    
Visibility 10 miles    
Events      
T = Trace of Precipitation, MM = Missing Value Source: NWS Daily Summary

Daily Weather History Graph

Daily Weather History Graph

Search for Another Location

Airport or City:

Trip Planner

Search our weather history database for the weather conditions in past years. The results will help you decide how hot, cold, wet, or windy it might be!

Date:

Astronomy

Sep. 28, 2013 Rise Set
Actual Time 6:20 AM MST 6:16 PM MST
Civil Twilight 5:55 AM MST 6:40 PM MST
Nautical Twilight 5:26 AM MST 7:09 PM MST
Astronomical Twilight 4:57 AM MST 7:38 PM MST
Moon 12:26 AM MST (9/28) 2:23 PM MST (9/28)
Length of Visible Light 12h 45m
Length of Day
11h 55m
Waning Crescent, 35% of the Moon is Illuminated
Sep 28
Waning Crescent
Oct 4
New
Oct 11
First Quarter
Oct 18
Full
Oct 26
Last Quarter

Hourly Weather History & Observations

Time (MST) Temp. Dew Point Humidity Pressure Visibility Wind Dir Wind Speed Gust Speed Precip Events Conditions
12:51 AM 71.1 °F 30.0 °F 22% 29.88 in 10.0 mi Calm Calm - N/A   Clear
1:51 AM 69.1 °F 26.1 °F 20% 29.89 in 10.0 mi ESE 4.6 mph - N/A   Clear
2:51 AM 68.0 °F 25.0 °F 20% 29.90 in 10.0 mi East 3.5 mph - N/A   Clear
3:51 AM 66.9 °F 27.0 °F 22% 29.91 in 10.0 mi Calm Calm - N/A   Clear
4:51 AM 64.9 °F 28.9 °F 26% 29.93 in 10.0 mi Calm Calm - N/A   Clear
5:51 AM 66.0 °F 32.0 °F 28% 29.95 in 10.0 mi Calm Calm - N/A   Clear
6:51 AM 64.9 °F 34.0 °F 32% 29.97 in 10.0 mi Calm Calm - N/A   Clear
7:51 AM 70.0 °F 28.9 °F 22% 29.99 in 10.0 mi Calm Calm - N/A   Clear
8:51 AM 73.9 °F 28.0 °F 18% 30.00 in 10.0 mi Calm Calm - N/A   Clear
9:51 AM 80.1 °F 21.9 °F 12% 30.01 in 10.0 mi North 4.6 mph - N/A   Clear
10:51 AM 82.9 °F 21.0 °F 10% 30.00 in 10.0 mi Variable 3.5 mph - N/A   Clear
11:51 AM 86.0 °F 19.0 °F 8% 29.98 in 10.0 mi ENE 11.5 mph - N/A   Clear
12:51 PM 88.0 °F 21.0 °F 9% 29.94 in 10.0 mi Variable 4.6 mph - N/A   Clear
1:51 PM 90.0 °F 21.9 °F 8% 29.92 in 10.0 mi East 9.2 mph - N/A   Clear
2:51 PM 91.0 °F 24.1 °F 9% 29.91 in 10.0 mi Variable 3.5 mph - N/A   Clear
3:51 PM 90.0 °F 21.9 °F 8% 29.89 in 10.0 mi Calm Calm - N/A   Clear
4:51 PM 90.0 °F 23.0 °F 9% 29.89 in 10.0 mi SSE 4.6 mph - N/A   Clear
5:51 PM 90.0 °F 21.9 °F 8% 29.90 in 10.0 mi SSW 4.6 mph - N/A   Clear
6:51 PM 86.0 °F 25.0 °F 11% 29.90 in 10.0 mi WSW 3.5 mph - N/A   Clear
7:51 PM 87.1 °F 26.1 °F 11% 29.92 in 10.0 mi West 6.9 mph - N/A   Clear
8:51 PM 82.9 °F 30.9 °F 15% 29.93 in 10.0 mi WNW 3.5 mph - N/A   Clear
9:51 PM 82.9 °F 26.1 °F 13% 29.93 in 10.0 mi NNW 4.6 mph - N/A   Clear
10:51 PM 75.9 °F 35.1 °F 23% 29.94 in 10.0 mi WSW 3.5 mph - N/A   Clear
11:51 PM 75.0 °F 35.1 °F 23% 29.94 in 10.0 mi Calm Calm - N/A   Clear